Weather Roundup
Issued by NWS Chicago, IL

Home | Current Version | Previous Version | Graphics & Text | Print | Product List | Glossary On
Versions: 1 2 3 4 5 6 7 8 9 10 11 12 13 14 15 16 17 18 19 20 21 22 23 24 25 26 27 28 29 30 31 32 33 34 35 36 37 38 39 40 41 42 43 44 45 46 47 48 49 50
000
NZUS59 KLOT 260308
HRRLOT

CHICAGO AREA WEATHER ROUNDUP
NATIONAL WEATHER SERVICE CHICAGO/ROMEOVILLE IL
1000 PM CDT SAT APR 25 2015

NOTE: "FAIR" INDICATES FEW OR NO CLOUDS BELOW 12,000 FEET WITH NO
SIGNIFICANT WEATHER AND/OR OBSTRUCTIONS TO VISIBILITY.

* THESE STATIONS ARE NOT UNDER NWS QUALITY CONTROL. THEY ALSO MAY NOT
  REPORT WEATHER SUCH AS PRECIPITATION OR FOG.

ILZ005-006-012>014-019>023-260400-
NORTHEAST ILLINOIS

CITY           SKY/WX    TMP DP  RH WIND       PRES   REMARKS
OHARE          CLOUDY    41  30  65 NE13      29.84S
MIDWAY         CLOUDY    43  33  68 N12       29.84S
AURORA         CLOUDY    42  30  62 NE12      29.84R
LANSING*       CLOUDY    42  35  77 N12       29.83S
JOLIET*        CLOUDY    44  35  71 NE10      29.83S
WAUKEGAN       CLOUDY    41  27  57 N12G20    29.85S
DUPAGE AIRPORT CLOUDY    41  29  62 NE13      29.84R
WHEELING       CLOUDY    42  27  55 N8        29.86S
KANKAKEE*      CLOUDY    45  42  88 NE12      29.81R
MORRIS*        CLOUDY    43  36  76 NE6       29.80S
LEWIS AIRPORT* CLOUDY    41  33  73 NE12      29.83R
NORTHERLY IS     N/A     40  33  76 N13         N/A
$$

WIZ051-052-058>065-066-070>072-260400-
SOUTHEAST WISCONSIN

CITY           SKY/WX    TMP DP  RH WIND       PRES   REMARKS
MILWAUKEE      MOCLDY    41  25  53 N14G22    29.88S
KENOSHA*       CLOUDY    41  28  60 N12       29.86F
RACINE*        CLOUDY    40  29  64 N17G23    29.88S
BURLINGTON     PTCLDY    39  19  44 N7        29.87S
WAUKESHA       PTCLDY    37  19  48 N8        29.90S
WEST BEND      CLOUDY    39  19  45 N6        29.90S
$$

INZ001>003-010>013-019-020-260400-
NORTHWEST INDIANA

CITY           SKY/WX    TMP DP  RH WIND       PRES   REMARKS
GARY*          CLOUDY    43  34  70 N15       29.84R
MICHIGAN CITY* NOT AVBL
RENSSELAER*    NOT AVBL
VALPARAISO     CLOUDY    43  40  89 N7        29.82R
$$

LMZ740>746-260400-
SOUTHERN LAKE MICHIGAN

STATION/POSITION TIME  SKY/WX   TEMP WIND        PRES    VSBY
                                AIR  DIR/SP/G
                 (UTC)          (F)  (DEG/KT/KT) (MB)    (MI)
HARRISON CRIB    0200            39  350/ 17/ 19   N/A
BURNHAM HARBOR   0300            40  360/ 12/ 15   N/A
CALUMET HARBOR   0212            40  340/ 12/ 16   N/A
BURNS HARBOR     0200            42   30/ 14/ 17 1010.5R
MICHIGAN CITY    0200            40  360/ 14/ 16   N/A
$$

ABBREVIATIONS USED IN REMARKS
   TC - TEMPERATURE IN CELSIUS
  WCI - WIND CHILL INDEX
   HX - HEAT INDEX
  VSB - VISIBILITY
$$


USA.gov is the U.S. government's official web portal to all federal, state and local government web resources and services.